Location: Boiro
(42.6475°N, 8.8834°W)
Time: 08:11:29
(UTC+01:00)

Vanguard 3 - Pass Details

Date: 05 December 2021
Orbit: 508 x 3260 km, 33.3° (Epoch: 24 January)

Event Time Altitude Azimuth Distance (km) Brightness Sun altitude
Rises 03:54:20 0° 222° (SW) 6,613 - -53.2°
Reaches altitude 10° 03:58:45 10° 216° (SW) 5,840 - -52.4°
Exits shadow 04:13:17 42° 170° (S) 4,105 10.4 -49.9°
Maximum altitude 04:16:08 44° 152° (SSE) 4,024 10.4 -49.4°
Drops below altitude 10° 04:32:33 10° 89° (E) 5,571 11.9 -46.5°
Sets 04:36:36 0° 83° (E) 6,300 12.4 -45.8°
